Regional Weather Roundup
Issued by NWS

Home | Current Version | Previous Version | Graphics & Text | Print | Product List | Glossary Off
Versions: 1 2 3 4 5 6 7 8 9 10 11 12 13 14 15 16 17 18 19 20 21 22 23 24 25 26 27 28 29 30 31 32 33 34 35 36 37 38 39 40 41 42 43 44 45 46 47 48 49 50

000
ASUS43 KMKX 222021
RWRWI

WISCONSIN REGIONAL WEATHER ROUNDUP
NATIONAL WEATHER SERVICE MILWAUKEE/SULLIVAN WI
300 PM CDT SAT APR 22 2017

NOTE: "FAIR" INDICATES FEW OR NO CLOUDS BELOW 12,000 FEET WITH NO
SIGNIFICANT WEATHER AND/OR OBSTRUCTIONS TO VISIBILITY.

WIZ001-002-006>008-014>016-023>028-222100-
NORTHWEST WISCONSIN

CITY           SKY/WX    TMP DP  RH WIND       PRES   REMARKS
SUPERIOR ARPT  MOSUNNY   69  36  29 W15G28    30.08F
ASHLAND        SUNNY     69  34  27 SW20G26   30.07F
HAYWARD        SUNNY     66  30  26 SW9G20    30.12F
SIREN          SUNNY     66  31  27 W13G24    30.14F
CUMBERLAND     MOSUNNY   63  30  29 W16G22    30.15F
RICE LAKE      MOSUNNY   65  30  26 SW8G18    30.18F
CHETEK         MOSUNNY   66  35  31 W9        30.16F
LADYSMITH      SUNNY     65  32  29 W15G21    30.17S
EAU CLAIRE     CLOUDY    64  27  24 VRB3      30.17F
MENOMONIE      SUNNY     66  30  26 W10       30.18F
NEW RICHMOND   SUNNY     67  31  26 NW12      30.17F
OSCEOLA        SUNNY     68  34  28 SW14      30.19F
$$

WIZ003>005-009-010-017-018-222100-
NORTH CENTRAL WISCONSIN

CITY           SKY/WX    TMP DP  RH WIND       PRES   REMARKS
MANITOWISH WTR SUNNY     64  28  25 W14G26    30.11F
ARBOR VITAE    SUNNY     65  27  24 SW12G21   30.11F
WOODRUFF       SUNNY     65  27  24 SW12G21   30.11F
RHINELANDER    SUNNY     66  27  23 VRB6      30.13F
EAGLE RIVER    SUNNY     64  22  20 W15       30.11F
LAND O LAKES   SUNNY     65  24  21 SW7G20    30.11F
PHILLIPS       SUNNY     63  29  27 W7G17     30.13F
TOMAHAWK       SUNNY     63  27  25 W14G21    30.15F
MEDFORD        CLOUDY    60  33  36 SW9       30.16F
MERRILL        CLOUDY    63  29  28 W12       30.15F
$$

WIZ029-030-035-036-043>047-222100-
CENTRAL WISCONSIN

CITY           SKY/WX    TMP DP  RH WIND       PRES   REMARKS
WAUSAU         SUNNY     62  30  29 W8        30.15F
MOSINEE        MOSUNNY   63  28  27 SW10      30.17F
MARSHFIELD     SUNNY     61  28  28 CALM      30.17F
STEVENS POINT  SUNNY     61  26  26 SW10      30.17F
WAUPACA        SUNNY     66  18  16 CALM      30.17F
WAUTOMA        SUNNY     64  23  21 MISG      30.18F
WISC RAPIDS    SUNNY     64  27  24 E5        30.18F
CAMP DOUGLAS   MOSUNNY   64  27  24 N5        30.18F
$$

WIZ011>013-019>022-031-037>040-048>050-222100-
NORTHEAST WISCONSIN

CITY           SKY/WX    TMP DP  RH WIND       PRES   REMARKS
ANTIGO         SUNNY     61  30  31 SW9       30.15F
SHAWANO        SUNNY     66  25  21 SW5       30.15F
OCONTO         SUNNY     62  30  29 SE9       30.14F
STURGEON BAY   SUNNY     60  26  27 VRB5      30.17F
GREEN BAY      SUNNY     62  32  32 SW6       30.17F
MANITOWOC      SUNNY     54  30  40 SE9       30.19F
APPLETON       MOSUNNY   61  21  21 VRB5      30.16F
CLINTONVILLE   SUNNY     64  23  20 W3        30.16F
OSHKOSH        SUNNY     60  30  32 VRB3      30.18F
$$

WIZ032>034-041-042-053>061-222100-
SOUTHWEST WISCONSIN

CITY           SKY/WX    TMP DP  RH WIND       PRES   REMARKS
LA CROSSE      SUNNY     67  25  20 VRB6      30.19F
SPARTA         SUNNY     64  29  26 E3        30.19F
VIROQUA        SUNNY     62  27  26 NW5       30.20S
BOSCOBEL       SUNNY     66  22  18 E5        30.19F
PRAIRIE DU CHI SUNNY     64  20  18 W10G16    30.19F
PLATTEVILLE    SUNNY     61  32  33 CALM      30.19F
$$

WIZ056-057-062-063-064-067-068-222100-
SOUTH CENTRAL WISCONSIN

CITY           SKY/WX    TMP DP  RH WIND       PRES   REMARKS
REEDSBURG      SUNNY     63  26  24 E6        30.18F
BARABOO/DELLS  SUNNY     62  21  20 SE3       30.18F
LONE ROCK      SUNNY     64  24  21 CALM      30.18F
MINERAL POINT  SUNNY     63  23  22 N5        30.19F
MADISON        MOSUNNY   61  28  28 VRB5      30.18F
MIDDLETON      SUNNY     62  27  26 E5        30.19F
WATERTOWN      SUNNY     61  31  32 NE6       30.17F
MONROE         SUNNY     59  32  36 CALM      30.18F
JANESVILLE     MOSUNNY   63  25  23 N6        30.17F
$$

WIZ051-052-058>065-066-070>072-222100-
SOUTHEAST WISCONSIN

CITY           SKY/WX    TMP DP  RH WIND       PRES   REMARKS
MILWAUKEE      MOSUNNY   56  28  34 NE7       30.20F
WAUKESHA       SUNNY     57  23  26 NE8       30.19F
MILWAUKEE/TIMM SUNNY     59  18  20 E6        30.20F
RACINE         SUNNY     55  26  32 NE9       30.21F
KENOSHA        SUNNY     57  25  29 E7        30.19F
FOND DU LAC    SUNNY     61  26  26 VRB5      30.18F
SHEBOYGAN      SUNNY     60  31  33 S5        30.18F
WEST BEND      SUNNY     59  27  29 CALM      30.17F
JUNEAU         SUNNY     59  28  30 CALM      30.19F
$$

LSZ147-162-222100-
LAKE SUPERIOR

STATION/POSITION TIME  TEMP    WIND        PRES    WAVE
                       AIR SEA DIR/SP/G            HT/PER
                 (UTC) (F)     (DEG/KT/KT) (MB)    (FT/S)
DEVILS ISLAND    2000   55     230/ 17/ 21 1017.8F
PORT WING        1940   61     260/ 14/ 18 1018.6F
SAXON HARBOR     1930   67     270/ 10/ 16 1018.3F
$$

LMZ867-665-643>646-222100-
LAKE MICHIGAN

STATION/POSITION TIME  TEMP    WIND        PRES    WAVE
                       AIR SEA DIR/SP/G            HT/PER
                 (UTC) (F)     (DEG/KT/KT) (MB)    (FT/S)
CHAMBERS ISLAND  1940   56     150/  5/ 13 1020.7F
N MID LAKE BUOY  1950   40 37  180/  8/ 10 1022.6F   0
NORTHPORT PIER   1940   50     150/ 10/ 12 1021.0F
SISTER BAY       1821   59        CALM       N/A
KEWAUNEE LAKESHO 1954   44     180/ 11/ 12 1021.8F
SHEBOYGAN LAKESH 2000   45     120/  8/  9 1022.3F
PORT WASHINGTON  1930   49      80/  3/  4 1023.7F
MILWAUKEE LAKESH 1950   46      60/  5/  5   N/A
KENOSHA   LAKESH 2000   46      40/ 10/ 11 1022.7
$$

TC  - TEMPERATURE IN CELSIUS
VSB - VISIBILITY IN STATUTE MILES
WCI - WIND CHILL INDEX
HX  - HEAT INDEX





USA.gov is the U.S. government's official web portal to all federal, state and local government web resources and services.